Osceola, IA

3:31 AM CST on February 11, 2016 (GMT -0600)
Osceola Municipal

Weather History for KI75 - October, 2013

Change the Weather History Date:

Tuesday, October 8, 2013

  Actual Average (KLWD) Record (KLWD)
Temperature  
Mean Temperature 60 °F 56 °F  
Max Temperature 75 °F 67 °F - ()
Min Temperature 46 °F 45 °F - ()
Degree Days  
Heating Degree Days 4 10  
Month to date heating degree days 69  
Since 1 July heating degree days 169  
Cooling Degree Days 0 1  
Month to date cooling degree days 8  
Year to date cooling degree days 941  
Growing Degree Days 10 (Base 50)    
Moisture  
Dew Point 43 °F    
Average Humidity 58    
Maximum Humidity 84    
Minimum Humidity 27    
Precipitation  
Precipitation 0.00 in 0.09 in - ()
Month to date precipitation 0.53  
Sea Level Pressure  
Sea Level Pressure 30.05 in    
Wind  
Wind Speed 7 mph (South)    
Max Wind Speed 17 mph    
Max Gust Speed 25 mph    
Visibility 10 miles    
Events      
T = Trace of Precipitation, MM = Missing Value Source: NWS Daily Summary

Daily Weather History Graph

Daily Weather History Graph

Search for Another Location

Airport or City:

Trip Planner

Search our weather history database for the weather conditions in past years. The results will help you decide how hot, cold, wet, or windy it might be!

Date:

Astronomy

Oct. 08, 2013 Rise Set
Actual Time 7:19 AM CDT 6:44 PM CDT
Civil Twilight 6:51 AM CDT 7:12 PM CDT
Nautical Twilight 6:19 AM CDT 7:44 PM CDT
Astronomical Twilight 5:47 AM CDT 8:15 PM CDT
Moon 11:15 AM CDT (10/8) 9:20 PM CDT (10/8)
Length of Visible Light 12h 20m
Length of Day
11h 25m
Waxing Crescent, 16% of the Moon is Illuminated
Oct 8
Waxing Crescent
Oct 11
First Quarter
Oct 18
Full
Oct 26
Last Quarter
Nov 3
New

Hourly Weather History & Observations

Time (CDT) Temp. Dew Point Humidity Pressure Visibility Wind Dir Wind Speed Gust Speed Precip Events Conditions
12:15 AM 51.1 °F 43.7 °F 76% 30.07 in 10.0 mi South 4.6 mph - N/A   Clear
12:35 AM 50.9 °F 43.7 °F 76% 30.06 in 10.0 mi South 4.6 mph - N/A   Clear
12:55 AM 50.4 °F 43.3 °F 77% 30.07 in 10.0 mi South 4.6 mph - N/A   Clear
1:15 AM 50.0 °F 43.3 °F 78% 30.07 in 10.0 mi South 4.6 mph - N/A   Clear
1:35 AM 50.0 °F 43.7 °F 79% 30.07 in 10.0 mi South 4.6 mph - N/A   Clear
1:55 AM 50.0 °F 43.7 °F 79% 30.07 in 10.0 mi South 4.6 mph - N/A   Clear
2:15 AM 50.0 °F 43.5 °F 78% 30.07 in 10.0 mi South 5.8 mph - N/A   Clear
2:35 AM 49.6 °F 43.5 °F 79% 30.07 in 10.0 mi South 4.6 mph - N/A   Clear
2:55 AM 49.3 °F 43.3 °F 80% 30.07 in 10.0 mi South 4.6 mph - N/A   Clear
3:15 AM 49.5 °F 43.3 °F 79% 30.06 in 10.0 mi South 5.8 mph - N/A   Clear
3:35 AM 50.0 °F 43.2 °F 77% 30.06 in 10.0 mi South 6.9 mph - N/A   Clear
3:55 AM 50.2 °F 43.2 °F 77% 30.06 in 10.0 mi South 5.8 mph - N/A   Clear
4:15 AM 50.0 °F 42.8 °F 76% 30.07 in 10.0 mi South 5.8 mph - N/A   Clear
4:35 AM 49.5 °F 42.8 °F 78% 30.07 in 10.0 mi South 4.6 mph - N/A   Clear
4:55 AM 49.1 °F 42.8 °F 79% 30.07 in 10.0 mi South 5.8 mph - N/A   Clear
5:15 AM 48.7 °F 42.8 °F 80% 30.07 in 10.0 mi South 4.6 mph - N/A   Clear
5:35 AM 48.2 °F 42.4 °F 80% 30.07 in 10.0 mi South 4.6 mph - N/A   Clear
5:55 AM 47.8 °F 42.3 °F 81% 30.07 in 10.0 mi South 5.8 mph - N/A   Clear
6:15 AM 47.7 °F 42.4 °F 82% 30.08 in 10.0 mi South 5.8 mph - N/A   Clear
6:35 AM 47.3 °F 42.3 °F 83% 30.08 in 10.0 mi South 5.8 mph - N/A   Clear
6:55 AM 47.3 °F 42.3 °F 83% 30.08 in 10.0 mi South 4.6 mph - N/A   Clear
7:15 AM 47.3 °F 42.3 °F 83% 30.08 in 10.0 mi South 5.8 mph - N/A   Clear
7:35 AM 46.6 °F 42.1 °F 84% 30.08 in 10.0 mi South 4.6 mph - N/A   Clear
7:55 AM 48.0 °F 42.6 °F 82% 30.08 in 10.0 mi SSE 5.8 mph - N/A   Clear
8:15 AM 50.0 °F 43.2 °F 77% 30.08 in 10.0 mi South 5.8 mph - N/A   Clear
8:35 AM 52.3 °F 43.7 °F 72% 30.09 in 10.0 mi South 6.9 mph - N/A   Clear
8:55 AM 54.5 °F 44.1 °F 68% 30.09 in 10.0 mi South 6.9 mph - N/A   Clear
9:15 AM 56.8 °F 44.8 °F 64% 30.09 in 10.0 mi South 6.9 mph - N/A   Clear
9:35 AM 60.3 °F 45.5 °F 58% 30.09 in 10.0 mi South 6.9 mph - N/A   Clear
9:55 AM 62.6 °F 44.8 °F 52% 30.09 in 10.0 mi South 11.5 mph 16.1 mph N/A   Clear
10:15 AM 64.8 °F 44.1 °F 47% 30.09 in 10.0 mi South 10.4 mph 17.3 mph N/A   Clear
10:35 AM 66.7 °F 43.5 °F 43% 30.08 in 10.0 mi South 11.5 mph 18.4 mph N/A   Clear
10:55 AM 67.6 °F 42.1 °F 39% 30.08 in 10.0 mi South 16.1 mph 21.9 mph N/A   Clear
11:15 AM 68.2 °F 42.4 °F 39% 30.08 in 10.0 mi South 12.7 mph 20.7 mph N/A   Clear
11:35 AM 69.1 °F 42.8 °F 39% 30.08 in 10.0 mi SSE 13.8 mph 18.4 mph N/A   Clear
11:55 AM 70.3 °F 43.5 °F 38% 30.07 in 7.0 mi South 11.5 mph - N/A   Clear
12:15 PM 71.4 °F 42.8 °F 36% 30.07 in 10.0 mi South 15.0 mph 19.6 mph N/A   Clear
12:35 PM 72.5 °F 42.8 °F 34% 30.07 in 10.0 mi South 13.8 mph 21.9 mph N/A   Clear
12:55 PM 72.7 °F 41.4 °F 32% 30.06 in 10.0 mi South 12.7 mph 24.2 mph N/A   Clear
1:15 PM 74.1 °F 40.3 °F 29% 30.05 in 7.0 mi South 11.5 mph 20.7 mph N/A   Clear
1:35 PM 74.1 °F 39.6 °F 29% 30.05 in 7.0 mi South 15.0 mph 25.3 mph N/A   Clear
1:55 PM 74.8 °F 39.6 °F 28% 30.04 in 10.0 mi South 17.3 mph 25.3 mph N/A   Clear
2:15 PM 75.6 °F 40.5 °F 28% 30.03 in 10.0 mi South 16.1 mph 21.9 mph N/A   Clear
2:35 PM 75.6 °F 38.8 °F 27% 30.03 in 10.0 mi South 12.7 mph 24.2 mph N/A   Clear
2:55 PM 75.4 °F 39.0 °F 27% 30.02 in 10.0 mi South 16.1 mph 23.0 mph N/A   Clear
3:15 PM 75.6 °F 39.6 °F 27% 30.02 in 10.0 mi South 13.8 mph 20.7 mph N/A   Clear
3:35 PM 75.4 °F 40.5 °F 28% 30.02 in 7.0 mi South 13.8 mph 24.2 mph N/A   Clear
3:55 PM 75.4 °F 42.3 °F 30% 30.02 in 7.0 mi South 11.5 mph 19.6 mph N/A   Clear
4:15 PM 74.7 °F 41.4 °F 30% 30.02 in 10.0 mi South 15.0 mph 21.9 mph N/A   Clear
4:35 PM 74.5 °F 41.7 °F 31% 30.01 in 10.0 mi SSE 12.7 mph 20.7 mph N/A   Clear
4:55 PM 74.3 °F 41.5 °F 31% 30.01 in 10.0 mi SSE 15.0 mph 19.6 mph N/A   Clear
5:15 PM 73.4 °F 41.5 °F 32% 30.00 in 10.0 mi SSE 13.8 mph 21.9 mph N/A   Clear
5:35 PM 72.5 °F 42.6 °F 34% 30.00 in 10.0 mi SSE 12.7 mph 17.3 mph N/A   Clear
5:55 PM 71.4 °F 43.0 °F 36% 30.01 in 10.0 mi SSE 9.2 mph - N/A   Clear
6:15 PM 69.8 °F 42.8 °F 38% 30.01 in 10.0 mi SSE 10.4 mph - N/A   Clear
6:35 PM 68.0 °F 43.0 °F 40% 30.01 in 10.0 mi SSE 10.4 mph - N/A   Clear
6:55 PM 66.4 °F 43.3 °F 43% 30.01 in 10.0 mi SSE 6.9 mph - N/A   Clear
7:15 PM 63.9 °F 44.1 °F 49% 30.02 in 10.0 mi SSE 3.5 mph - N/A   Clear
7:35 PM 60.8 °F 44.8 °F 56% 30.02 in 10.0 mi SSE 5.8 mph - N/A   Clear
7:55 PM 58.8 °F 45.5 °F 61% 30.02 in 10.0 mi SSE 4.6 mph - N/A   Clear
8:15 PM 58.1 °F 45.7 °F 63% 30.03 in 10.0 mi SSE 5.8 mph - N/A   Clear
8:35 PM 58.1 °F 45.5 °F 63% 30.03 in 10.0 mi SSE 4.6 mph - N/A   Clear
8:55 PM 59.9 °F 45.5 °F 59% 30.03 in 10.0 mi SSE 6.9 mph - N/A   Clear
9:15 PM 59.4 °F 45.9 °F 61% 30.04 in 10.0 mi SSE 8.1 mph - N/A   Clear
9:35 PM 59.5 °F 45.9 °F 61% 30.04 in 10.0 mi SSE 9.2 mph - N/A   Clear
9:55 PM 59.4 °F 45.9 °F 61% 30.04 in 10.0 mi SSE 6.9 mph - N/A   Clear
10:15 PM 59.0 °F 46.4 °F 63% 30.05 in 10.0 mi SSE 6.9 mph - N/A   Clear
10:35 PM 58.1 °F 46.4 °F 65% 30.05 in 10.0 mi SSE 6.9 mph - N/A   Clear
10:55 PM 57.7 °F 46.4 °F 66% 30.04 in 10.0 mi SSE 6.9 mph - N/A   Clear
11:15 PM 57.9 °F 46.6 °F 66% 30.05 in 10.0 mi SSE 6.9 mph - N/A   Clear
11:35 PM 57.7 °F 46.8 °F 67% 30.04 in 10.0 mi SSE 6.9 mph - N/A   Clear
11:55 PM 57.6 °F 46.9 °F 68% 30.04 in 10.0 mi SSE 8.1 mph - N/A   Clear